CAPE
25 25 31 29 32 30 38 39 40 39 36 29 21 12 8 3 2 10 0 0 0 0 0 0 0 0 0 0 0 0 0 0 25 0 7 0 0 0 2 43 13 64 133 45 61 14 0 99 289 275 237 138 103 96
17 29 33 37 39 31 26 39 43 44 30 25 23 20 14 2 1 8 0 0 0 0 0 0 0 0 0 0 0 0 0 0 6 41 54 84 7 0 195 32 156 38 30 191 393 189 3 0 9 2 0 0 0 0
26 21 30 32 35 21 18 17 31 39 37 28 20 21 17 4 1 10 1 0 0 0 0 0 0 0 0 0 0 0 0 0 0 0 0 39 298 320 276 63 337 67 29 59 271 33 0 0 0 0 0 0 6 10
9 8 6 17 35 23 21 19 25 36 29 15 16 13 17 5 0 0 1 0 0 0 0 0 0 0 0 0 0 0 0 0 0 0 0 0 33 66 97 0 4 2 6 76 125 16 0 0 0 0 0 0 0 0
6 10 9 10 12 34 33 12 11 24 15 12 16 11 16 0 0 0 0 0 0 3 0 0 0 0 0 0 0 0 0 0 0 0 0 0 0 0 2 27 58 45 0 0 0 0 0 0 0 0 0 0 0 0
6 8 8 9 7 18 21 15 32 28 18 9 17 2 11 0 0 0 6 0 0 0 0 0 0 0 0 0 0 0 0 0 0 0 0 0 0 0 0 0 0 56 12 0 0 0 0 0 0 0 0 0 0 0
5 4 5 5 8 4 9 13 29 18 2 4 4 0 1 0 0 0 0 0 0 0 0 0 0 0 0 0 0 0 0 0 0 0 0 0 0 0 0 0 0 0 0 0 0 0 0 0 0 0 0 0 0 0
0 4 2 5 7 7 7 7 17 10 8 0 0 0 0 0 0 0 0 0 0 0 0 0 0 0 0 0 0 0 0 0 0 0 0 0 0 0 0 0 0 0 0 0 0 0 0 0 0 0 0 0 0 0
0 1 0 6 4 4 6 1 3 1 0 0 0 0 0 0 1 9 0 0 0 0 0 9 0 6 0 0 0 0 0 0 0 0 0 0 0 0 0 0 0 0 0 0 0 0 0 0 0 0 0 0 0 0
3 1 0 3 0 5 2 3 4 0 0 0 0 0 1 12 3 0 0 0 0 0 0 0 0 0 0 0 0 0 0 0 0 0 0 0 37 33 30 6 0 0 0 0 0 0 0 0 0 0 0 0 0 0
4 0 9 7 6 8 9 3 0 1 0 0 1 2 6 0 0 0 0 0 0 1 0 0 0 0 0 0 2 0 0 0 0 0 0 5 39 0 0 0 0 0 0 0 0 0 0 0 0 0 0 0 0 0
2 2 10 6 4 15 6 1 0 1 7 1 0 0 10 2 4 0 0 0 0 0 0 0 0 0 0 0 0 0 0 0 1 5 1 31 1 0 0 0 0 0 0 0 0 0 0 0 0 0 0 0 0 0
1 0 4 8 13 11 4 0 0 3 1 5 1 6 12 3 0 0 0 0 0 0 0 1 0 0 0 0 0 0 0 0 0 0 7 2 0 0 0 0 0 0 0 0 0 0 0 0 0 0 0 0 0 0
5 0 3 7 12 5 4 0 0 0 0 0 1 0 0 1 0 0 12 50 41 11 3 7 1 5 0 0 0 0 0 0 0 1 0 0 0 0 0 0 0 0 0 0 0 0 0 0 0 0 0 3 24 4
3 4 6 5 7 1 0 0 0 2 2 5 6 0 3 23 19 36 27 23 13 4 0 0 0 1 0 0 0 0 0 0 15 3 0 0 0 0 0 0 0 0 0 0 0 0 3 0 0 0 2 39 85 26
3 10 8 3 1 0 0 0 0 12 17 4 3 3 33 8 14 19 11 15 0 0 0 0 11 10 13 5 0 0 1 18 1 1 6 0 0 0 0 0 0 0 0 0 8 0 4 2 0 0 4 22 38 62
0 5 0 0 0 0 0 1 10 23 1 0 0 5 0 14 15 28 46 11 2 2 6 12 9 10 15 6 0 10 0 0 0 6 4 0 0 0 0 0 0 4 0 0 1 4 11 7 8 0 4 26 18 32
0 0 0 0 0 0 0 2 42 0 0 0 1 5 0 13 35 13 5 16 10 8 5 4 24 19 2 9 30 2 4 7 1 2 1 0 4 1 12 8 7 8 1 5 5 16 14 2 9 1 12 12 7 47
0 0 0 0 1 1 54 9 6 0 6 0 17 8 5 28 31 35 24 15 0 1 9 30 8 10 13 11 11 8 0 1 2 4 0 0 0 4 5 15 15 19 42 31 14 7 6 1 1 0 1 17 0 4
0 0 0 0 0 1 21 10 2 16 18 19 35 9 29 17 6 7 12 6 2 0 3 3 8 11 14 5 0 0 3 4 0 0 0 24 26 22 10 29 23 28 37 4 4 6 0 7 14 33 22 10 0 5
0 0 0 0 4 2 16 6 15 18 29 13 2 29 21 4 8 5 9 14 1 1 2 10 11 2 3 9 14 18 40 4 5 7 0 0 4 2 20 14 30 29 21 5 0 10 11 24 15 12 3 0 6 12
0 0 0 0 2 4 1 5 0 3 3 0 0 6 31 25 34 14 22 15 20 10 14 7 0 0 0 0 0 4 9 5 11 18 14 21 13 40 14 13 21 20 26 21 1 0 0 0 0 1 0 0 0 0
0 0 0 2 1 0 0 0 5 1 1 1 2 6 2 2 1 0 0 0 0 0 0 0 0 0 0 2 17 14 2 11 24 42 59 56 57 28 33 33 44 37 33 6 0 0 0 0 0 0 0 0 2 3
0 0 1 1 1 0 1 1 1 0 1 0 1 0 0 1 0 0 0 0 0 14 45 70 7 11 13 17 17 22 44 62 51 55 86 72 43 16 16 23 9 5 3 13 15 1 1 0 0 0 0 0 0 1
1 1 0 0 1 1 2 3 3 1 0 1 0 0 0 0 0 0 4 0 0 0 0 0 9 24 30 43 77 96 81 83 77 25 32 5 1 0 1 6 4 0 0 0 0 0 0 0 0 0 2 11 9 4
3 0 0 0 1 0 0 2 2 0 0 0 0 1 1 1 2 6 14 11 15 15 13 23 53 71 81 76 42 36 22 1 1 12 14 11 5 2 0 0 0 0 0 0 0 0 0 0 0 0 0 0 0 2
0 43 1 0 0 0 26 106 44 36 8 42 17 9 19 5 16 22 6 36 57 34 13 72 45 29 56 42 4 16 11 16 24 3 0 0 0 0 0 0 0 0 0 0 0 0 0 0 0 0 0 0 0 0
184 106 73 87 88 54 45 36 9 0 0 4 12 5 0 10 26 32 27 9 41 43 23 6 0 6 1 1 0 0 0 0 0 0 0 0 0 0 0 0 0 0 0 0 0 0 0 0 0 0 0 0 0 0
62 90 63 48 44 44 29 26 3 0 3 0 0 4 9 11 42 19 42 42 27 12 9 2 0 0 0 0 0 0 0 0 0 0 0 0 0 0 0 0 0 0 0 0 0 0 0 0 0 0 0 0 0 3
36 35 43 63 48 25 29 17 9 4 0 0 3 3 19 28 31 32 27 10 5 2 0 0 0 0 0 0 0 0 0 0 0 0 0 0 0 0 0 0 0 0 0 0 0 0 0 0 0 0 0 0 0 0
163 82 63 103 85 100 68 40 7 11 3 5 16 1 4 13 9 1 2 0 0 0 0 0 0 0 0 0 0 0 0 0 0 0 0 0 0 0 0 0 0 0 0 0 0 0 0 0 0 0 0 0 0 0
247 187 36 9 159 159 132 97 60 26 29 40 30 33 26 4 14 1 0 0 0 0 0 0 0 0 0 0 0 0 0 0 0 0 0 0 0 0 0 0 0 0 0 0 0 0 1 1 0 0 1 0 0 0
269 246 262 160 52 140 156 170 59 24 85 12 1 13 35 27 14 5 0 0 0 0 0 0 0 0 0 0 0 0 0 0 0 0 0 0 0 0 0 0 0 0 0 0 4 0 0 0 0 0 0 0 0 0
CIN
-0 -0 -0 -0 -0 -0 -0 -0 -0 -0 -2 -8 -2 -3 -0 -0 -0 -0 -0 -0 -0 -0 -0 -0 -0 -0 -0 -0 -0 -0 -0 -0 -125 -6 -44 -0 -0 -0 -29 -19 -30 -31 -37 -118 -112 -129 -0 -161 -96 -46 -94 -167 -159 -199
-1 -0 -0 -0 -0 -0 -0 -0 -0 -0 -3 -4 -6 -1 -0 -0 -0 -0 -0 -0 -0 -0 -0 -0 -0 -0 -0 -0 -0 -0 -0 -0 -332 -268 -238 -192 -60 -0 -18 -38 -18 -190 -64 -15 -49 -66 -112 -0 -430 -329 -45 -0 -0 -0
-1 -3 -1 -0 -0 -1 -5 -3 -0 -1 -1 -0 -1 -0 -0 -0 -0 -0 -0 -0 -0 -0 -0 -0 -0 -0 -0 -0 -0 -0 -0 -0 -0 -0 -0 -213 -50 -48 -52 -164 -102 -145 -32 -115 -115 -254 -0 -0 -0 -0 -0 -0 -327 -232
-3 -2 -3 -1 -0 -0 -2 -5 -1 -2 -0 -1 -0 -0 -0 -0 -0 -0 -0 -0 -0 -0 -0 -0 -0 -0 -0 -0 -0 -0 -0 -0 -0 -0 -0 -0 -182 -166 -150 -2 -226 -70 -111 -272 -294 -271 -0 -0 -0 -0 -0 -0 -0 -40
-5 -1 -2 -3 -3 -0 -0 -7 -4 -0 -0 -0 -0 -0 -0 -0 -0 -0 -0 -0 -0 -1 -0 -0 -0 -0 -0 -0 -0 -0 -0 -0 -0 -0 -0 -0 -0 -11 -30 -88 -129 -237 -87 -0 -0 -0 -0 -0 -0 -0 -0 -0 -0 -0
-11 -3 -0 -4 -7 -3 -3 -4 -0 -1 -1 -2 -1 -4 -0 -0 -0 -0 -8 -7 -0 -0 -0 -0 -0 -0 -0 -0 -0 -0 -0 -0 -0 -0 -0 -0 -0 -0 -0 -0 -4 -174 -130 -0 -0 -0 -0 -0 -0 -0 -0 -0 -0 -0
-13 -8 -7 -7 -7 -6 -6 -5 -0 -3 -14 -9 -4 -0 -2 -0 -0 -0 -0 -0 -0 -0 -0 -0 -0 -0 -0 -0 -0 -0 -0 -0 -0 -0 -0 -0 -0 -0 -0 -0 -0 -0 -0 -0 -0 -0 -0 -0 -0 -0 -0 -0 -0 -0
-3 -6 -6 -5 -6 -8 -16 -5 -3 -9 -14 -4 -0 -0 -0 -0 -0 -0 -0 -0 -0 -0 -0 -0 -0 -0 -0 -0 -0 -0 -0 -0 -0 -0 -0 -0 -0 -0 -0 -0 -0 -0 -0 -0 -0 -0 -0 -0 -0 -0 -0 -0 -0 -0
-0 -3 -0 -6 -6 -9 -14 -5 -11 -13 -0 -0 -0 -0 -0 -0 -3 -9 -0 -0 -0 -0 -35 -77 -0 -7 -0 -0 -0 -0 -0 -0 -0 -0 -0 -0 -0 -0 -0 -0 -0 -0 -0 -0 -0 -0 -0 -0 -0 -0 -0 -0 -0 -0
-2 -2 -0 -6 -4 -14 -20 -6 -6 -2 -0 -0 -0 -0 -0 -4 -9 -0 -0 -0 -0 -0 -0 -0 -0 -0 -0 -0 -0 -0 -0 -0 -0 -0 -0 -0 -49 -146 -101 -83 -0 -0 -0 -0 -0 -0 -0 -0 -0 -0 -0 -0 -0 -0
-2 -1 -5 -6 -5 -11 -11 -10 -3 -12 -0 -0 -0 -0 -18 -0 -0 -0 -0 -0 -0 -78 -0 -0 -0 -0 -0 -0 -30 -0 -0 -0 -0 -0 -0 -3 -41 -0 -0 -0 -0 -0 -0 -0 -0 -0 -0 -0 -0 -0 -0 -0 -0 -0
-3 -3 -2 -9 -9 -3 -13 -9 -3 -12 -3 -2 -0 -0 -31 -3 -1 -0 -0 -0 -0 -0 -0 -0 -0 -0 -0 -0 -0 -0 -0 -0 -2 -11 -9 -34 -0 -0 -0 -0 -0 -0 -0 -0 -0 -0 -0 -0 -0 -0 -0 -0 -0 -0
-4 -7 -5 -10 -4 -1 -9 -0 -0 -11 -28 -5 -1 -2 -3 -3 -0 -0 -0 -0 -0 -0 -0 -1 -0 -0 -0 -0 -0 -0 -0 -0 -0 -0 -31 -0 -0 -0 -0 -0 -0 -0 -0 -0 -0 -0 -0 -0 -0 -0 -0 -0 -0 -0
-2 -2 -12 -9 -6 -9 -5 -0 -0 -6 -0 -0 -0 -0 -5 -49 -0 -0 -5 -4 -5 -4 -7 -4 -0 -6 -0 -0 -0 -0 -0 -0 -0 -2 -1 -0 -0 -0 -0 -0 -0 -0 -0 -0 -0 -0 -0 -0 -0 -0 -0 -15 -9 -6
-12 -14 -15 -13 -12 -7 -0 -0 -0 -7 -2 -0 -8 -0 -29 -6 -9 -10 -4 -24 -33 -10 -0 -0 -0 -10 -0 -0 -0 -0 -0 -0 -13 -4 -0 -0 -0 -0 -0 -0 -0 -0 -0 -0 -0 -0 -0 -0 -0 -0 -5 -12 -23 -53
-17 -8 -7 -13 -4 -0 -0 -0 -0 -2 -1 -1 -0 -28 -9 -48 -17 -3 -36 -5 -0 -0 -0 -0 -10 -5 -1 -4 -0 -0 -1 -15 -0 -0 -1 -0 -0 -0 -0 -0 -0 -0 -0 -0 -9 -0 -19 -5 -0 -0 -37 -34 -46 -38
-13 -1 -0 -0 -0 -0 -0 -0 -0 -1 -0 -0 -0 -58 -0 -28 -21 -5 -10 -24 -12 -2 -4 -9 -1 -2 -4 -3 -0 -14 -0 -0 -0 -1 -2 -0 -0 -0 -0 -0 -5 -42 -0 -0 -60 -28 -30 -34 -25 -0 -28 -9 -13 -16
-0 -0 -0 -0 -0 -0 -0 -3 -0 -0 -0 -0 -2 -11 -0 -33 -9 -10 -4 -20 -8 -12 -18 -12 -11 -3 -6 -0 -6 -0 -3 -7 -2 -2 -1 -3 -26 -10 -29 -33 -48 -58 -27 -45 -54 -44 -31 -32 -23 -13 -27 -23 -22 -16
-0 -0 -0 -0 -2 -0 -0 -6 -2 -0 -4 -3 -14 -7 -53 -11 -2 -0 -2 -4 -0 -12 -18 -13 -6 -4 -9 -11 -9 -11 -0 -1 -2 -1 -0 -0 -0 -21 -24 -24 -23 -24 -22 -24 -24 -22 -18 -14 -18 -7 -8 -19 -0 -22
-0 -0 -0 -0 -0 -3 -1 -8 -1 -3 -1 -15 -11 -6 -3 -6 -3 -2 -3 -2 -2 -0 -1 -2 -1 -2 -4 -4 -0 -0 -1 -1 -0 -0 -0 -19 -11 -13 -18 -13 -2 -19 -7 -12 -3 -10 -1 -14 -24 -20 -15 -15 -0 -13
-0 -0 -0 -0 -0 -3 -1 -4 -5 -12 -12 -4 -10 -2 -6 -0 -1 -1 -1 -1 -1 -1 -1 -4 -3 -11 -20 -17 -17 -11 -4 -2 -13 -22 -0 -0 -32 -41 -28 -25 -11 -12 -7 -4 -0 -8 -3 -3 -8 -14 -15 -0 -22 -13
-0 -0 -0 -0 -0 -0 -0 -0 -0 -2 -1 -0 -0 -4 -2 -5 -3 -24 -19 -3 -1 -4 -9 -21 -0 -0 -0 -0 -11 -21 -19 -26 -34 -41 -53 -58 -53 -34 -31 -23 -9 -10 -9 -3 -9 -0 -0 -0 -0 -11 -0 -0 -0 -0
-3 -0 -4 -0 -0 -0 -0 -0 -0 -0 -0 -0 -0 -1 -0 -0 -0 -0 -0 -0 -0 -0 -0 -0 -0 -0 -0 -13 -21 -34 -44 -54 -36 -38 -41 -30 -21 -18 -29 -28 -11 -0 -0 -10 -0 -0 -0 -0 -0 -0 -0 -0 -6 -8
-0 -0 -0 -0 -0 -0 -0 -0 -0 -0 -0 -0 -0 -0 -0 -0 -0 -0 -0 -0 -0 -29 -17 -8 -12 -7 -52 -57 -55 -44 -31 -32 -28 -22 -11 -10 -4 -7 -13 -11 -6 -23 -23 -11 -2 -5 -2 -2 -0 -0 -0 -0 -0 -1
-0 -0 -0 -0 -0 -0 -0 -0 -0 -0 -0 -0 -0 -0 -0 -0 -0 -0 -0 -0 -0 -0 -0 -4 -72 -48 -53 -44 -28 -24 -22 -18 -14 -2 -6 -10 -16 -0 -0 -0 -3 -0 -0 -0 -0 -0 -0 -0 -0 -0 -13 -4 -2 -6
-0 -0 -0 -0 -0 -0 -0 -0 -0 -0 -0 -0 -0 -0 -0 -0 -1 -5 -24 -44 -60 -73 -77 -77 -40 -36 -34 -29 -1 -3 -7 -12 -8 -10 -0 -3 -10 -6 -0 -0 -0 -0 -0 -0 -0 -0 -0 -0 -0 -0 -0 -0 -0 -25
-0 -35 -7 -0 -0 -0 -16 -23 -19 -4 -5 -3 -24 -13 -14 -6 -2 -1 -5 -21 -8 -12 -8 -12 -13 -10 -0 -5 -16 -3 -15 -7 -12 -3 -0 -0 -0 -0 -0 -0 -0 -0 -0 -0 -0 -0 -0 -0 -0 -0 -0 -0 -0 -0
-3 -0 -0 -0 -4 -1 -0 -1 -9 -0 -1 -4 -2 -7 -1 -1 -5 -6 -2 -23 -16 -5 -6 -36 -6 -7 -1 -2 -3 -0 -0 -0 -0 -0 -0 -0 -0 -0 -0 -0 -0 -0 -0 -0 -0 -0 -0 -0 -0 -0 -0 -0 -0 -0
-2 -4 -12 -5 -1 -2 -2 -2 -3 -0 -2 -0 -0 -5 -1 -8 -2 -10 -2 -0 -1 -8 -9 -5 -0 -0 -0 -0 -0 -0 -0 -0 -0 -0 -0 -0 -0 -0 -0 -0 -0 -0 -0 -0 -0 -0 -0 -0 -0 -0 -0 -0 -1 -50
-1 -1 -1 -4 -3 -5 -4 -2 -4 -2 -0 -0 -20 -15 -2 -3 -6 -6 -7 -6 -5 -3 -0 -0 -0 -0 -0 -0 -0 -0 -0 -0 -0 -0 -0 -0 -0 -0 -0 -0 -0 -0 -0 -0 -0 -0 -0 -0 -0 -0 -0 -0 -0 -0
-13 -21 -23 -16 -2 -4 -3 -1 -25 -28 -7 -4 -3 -8 -7 -2 -6 -6 -13 -0 -0 -0 -0 -0 -0 -0 -0 -0 -0 -0 -0 -0 -0 -0 -0 -0 -0 -0 -0 -0 -0 -0 -0 -0 -0 -0 -0 -0 -0 -0 -0 -0 -0 -0
-2 -5 -16 -21 -2 -5 -8 -2 -5 -8 -5 -9 -8 -24 -17 -32 -10 -4 -0 -0 -0 -0 -0 -0 -0 -0 -0 -0 -0 -0 -0 -0 -0 -0 -0 -0 -0 -0 -0 -0 -0 -0 -0 -0 -0 -0 -1 -1 -0 -0 -17 -0 -0 -0
-14 -2 -12 -15 -24 -9 -0 -2 -33 -28 -4 -21 -11 -0 -2 -2 -7 -3 -0 -0 -0 -0 -0 -0 -0 -0 -0 -0 -0 -0 -0 -0 -0 -0 -0 -0 -0 -0 -0 -0 -0 -0 -0 -0 -1 -0 -0 -0 -0 -0 -2 -0 -0 -0
Wind_Speed
30 29 29 29 34 34 33 33 33 33 33 32 31 31 30 29 28 25 27 27 26 29 35 31 29 29 28 26 28 27 24 22 22 24 28 32 32 36 32 26 24 14 22 28 25 28 33 27 26 22 14 11 10 12
29 28 28 30 33 32 32 32 31 31 31 31 31 30 29 28 27 25 24 25 27 27 28 33 35 33 31 28 30 25 26 22 21 23 24 28 34 34 25 22 19 27 22 18 18 19 12 20 12 19 17 15 17 16
22 22 24 28 31 34 32 32 30 30 30 29 29 29 29 27 26 25 26 26 25 25 30 29 29 27 24 25 24 27 23 21 20 21 24 25 27 27 29 27 19 15 16 20 16 16 19 20 18 16 17 22 23 22
18 22 20 22 27 29 30 29 28 28 27 28 28 27 28 27 26 26 25 25 24 25 24 19 15 20 20 24 24 27 31 26 25 24 23 24 26 21 21 18 21 19 20 18 16 14 16 17 17 15 14 17 25 24
10 13 15 5 22 27 30 29 27 26 26 27 26 26 26 26 26 26 28 26 25 24 23 25 26 23 19 20 22 22 24 26 26 24 24 25 22 22 24 22 20 19 18 20 24 17 17 21 19 16 19 20 20 26
3 3 10 11 7 20 28 28 27 25 25 25 25 25 25 24 23 21 18 16 16 17 20 21 18 16 16 18 19 20 22 23 23 23 23 21 18 18 16 10 15 14 11 9 15 8 6 19 18 19 21 22 23 25
2 5 8 9 15 25 28 26 26 24 25 25 25 24 24 23 23 22 21 19 21 20 18 22 18 15 14 15 18 17 19 20 21 21 22 22 18 17 19 19 16 10 9 11 10 9 14 19 21 23 24 27 30 31
5 7 5 4 18 24 25 25 25 25 24 23 23 22 23 23 24 23 23 27 23 20 19 20 19 15 14 16 17 17 16 16 18 18 18 18 17 17 19 16 13 13 12 12 13 14 16 18 20 22 24 26 27 29
11 9 4 10 14 23 23 22 22 22 21 20 20 20 18 17 17 17 15 15 18 20 18 19 17 14 14 17 12 15 18 18 14 17 17 15 14 16 16 17 15 12 13 14 16 18 20 23 25 26 27 28 29 30
8 11 14 17 13 18 18 16 19 18 19 18 16 17 17 17 16 15 15 16 19 19 19 20 17 17 17 17 14 14 15 17 15 17 13 13 8 13 15 11 12 13 14 17 20 25 26 28 30 31 32 32 33 35
9 13 16 15 16 15 14 15 15 16 16 17 18 16 18 17 16 17 17 18 19 17 19 19 19 16 14 13 14 12 13 15 15 13 13 13 14 16 17 16 18 19 21 23 25 28 30 32 34 35 35 35 35 35
14 10 14 15 17 19 16 17 18 18 15 16 17 17 17 17 16 17 17 18 19 17 18 21 19 14 15 15 15 14 15 14 13 14 15 15 17 19 20 22 23 25 27 29 31 34 36 37 37 38 39 39 37 38
11 9 12 19 19 23 22 22 23 17 14 13 14 15 15 15 16 16 14 16 17 17 18 14 16 17 16 16 15 15 14 15 15 14 13 16 21 22 25 26 28 28 30 31 33 35 39 40 40 39 39 40 40 39
10 5 7 21 23 19 22 24 22 16 14 15 14 12 15 16 16 15 13 10 12 11 13 16 13 15 14 16 15 13 14 15 16 15 15 18 22 25 27 29 30 32 33 35 36 38 38 38 38 38 37 35 37 35
13 15 21 20 21 19 22 25 20 16 16 14 15 14 14 15 13 12 12 9 11 9 8 12 13 15 16 15 16 14 14 15 15 15 17 19 23 25 26 27 29 30 30 30 31 31 33 32 33 32 26 23 22 24
22 14 15 20 18 19 24 21 18 15 16 15 14 14 13 11 17 13 6 10 10 12 11 14 14 16 15 16 16 16 17 14 14 17 18 19 22 22 22 23 25 25 24 24 26 27 28 27 28 26 24 22 17 14
16 19 23 20 18 21 21 16 17 16 15 15 12 10 15 14 13 12 8 11 14 15 13 15 15 14 17 15 15 16 15 15 18 20 18 19 21 21 22 23 24 23 23 25 24 24 25 26 26 25 24 23 22 21
25 26 24 21 20 17 16 15 16 16 16 16 11 10 15 14 12 12 9 10 12 13 14 14 16 16 15 15 14 15 16 18 19 18 19 18 20 21 22 22 23 20 19 16 17 15 23 25 24 24 22 21 22 20
28 28 22 10 11 15 15 16 17 17 15 14 14 15 16 16 15 12 10 10 11 14 16 15 16 15 15 14 15 16 18 19 20 20 19 19 21 22 23 23 21 22 22 18 10 11 15 15 19 21 20 19 20 20
29 25 18 12 11 15 16 16 18 17 14 15 14 14 13 14 16 13 12 13 13 15 16 15 14 13 13 15 18 19 19 19 21 20 20 21 21 21 21 21 20 22 23 24 24 21 25 20 13 11 15 17 18 18
19 17 15 12 15 16 16 15 15 14 14 14 14 16 15 15 16 16 15 16 16 16 17 16 16 15 17 18 18 19 20 20 20 20 20 21 21 21 19 22 24 25 25 25 23 24 24 26 22 23 23 25 14 14
15 15 14 14 16 15 16 14 16 15 15 15 14 13 15 15 15 14 15 17 17 17 17 18 18 18 16 17 18 18 18 18 18 19 17 17 18 18 18 18 20 23 18 20 19 27 26 24 24 25 23 23 17 12
16 15 15 16 17 17 18 14 19 17 19 18 18 18 17 16 14 14 16 16 18 18 18 18 18 18 17 16 17 18 17 17 16 16 15 15 15 15 14 12 10 27 27 15 20 21 22 24 22 25 22 19 16 15
15 17 17 18 19 19 17 19 19 19 19 19 20 19 18 16 13 16 18 15 15 14 15 15 14 16 13 12 13 15 15 15 14 14 14 13 18 19 18 18 25 27 27 27 21 23 23 24 22 21 23 25 26 27
21 20 21 21 20 20 20 23 23 22 22 22 20 20 22 23 22 18 17 17 18 23 24 19 19 17 14 12 13 13 12 12 11 16 19 21 23 25 26 26 26 26 28 28 28 28 30 31 31 32 33 31 28 25
20 19 21 21 22 21 22 23 25 25 26 26 24 23 24 21 19 17 18 20 20 18 18 17 15 13 14 13 10 11 14 14 19 21 23 24 26 29 29 28 28 30 32 32 33 34 34 34 35 36 35 35 35 35
17 19 19 18 19 20 19 19 22 21 23 21 22 24 22 16 16 17 4 12 18 17 14 13 12 9 9 21 13 8 22 24 22 24 27 28 29 28 29 30 31 32 33 35 36 37 36 36 36 37 37 36 35 35
16 13 9 26 27 9 16 19 17 7 16 19 21 14 15 19 18 16 18 17 13 11 16 23 20 14 21 23 25 26 28 28 28 30 30 30 30 29 32 32 32 36 36 37 36 35 34 35 36 37 38 38 37 34
24 28 22 18 1 27 25 27 29 30 29 27 25 24 18 20 23 19 15 7 9 16 17 20 22 24 26 27 28 29 30 32 33 34 34 32 31 32 33 33 35 36 36 34 34 34 37 37 37 36 36 33 33 32
23 18 19 5 1 15 12 23 26 27 27 29 30 29 29 28 25 17 16 20 21 25 24 25 27 28 29 30 32 33 33 35 35 34 32 33 33 34 35 37 37 36 34 33 35 36 35 35 35 35 35 35 34 35
23 12 11 13 13 8 8 10 25 24 23 23 24 25 26 25 25 24 25 26 26 25 25 26 28 31 31 33 35 36 37 36 35 33 32 32 33 34 36 35 35 32 31 35 35 34 36 35 35 36 37 37 37 37
11 18 18 14 10 10 10 11 21 16 19 20 19 20 19 20 20 23 25 27 29 29 28 28 30 32 32 34 35 35 36 35 35 31 33 32 33 32 33 33 32 33 34 35 35 35 37 38 37 37 35 37 37 36
12 16 15 18 16 13 15 17 9 10 13 16 16 14 15 17 21 19 23 28 30 27 28 29 30 31 33 36 37 36 35 33 33 33 33 31 29 34 34 33 33 33 35 35 34 37 39 40 40 40 38 37 36 35
Wind_Direction
316 314 313 310 304 300 300 299 297 296 293 289 288 289 287 285 287 290 271 272 276 269 267 261 266 271 270 274 265 273 270 280 268 257 255 246 249 248 270 262 257 262 259 255 257 263 262 285 265 273 308 320 307 292
318 315 313 309 303 300 298 294 293 291 289 285 282 281 281 282 283 283 273 282 283 267 267 268 265 266 267 272 261 270 269 275 277 267 268 258 250 254 268 255 292 258 274 271 257 255 266 269 322 331 328 329 316 308
319 319 317 309 302 294 292 286 286 284 284 281 279 281 276 278 280 279 276 279 282 273 274 263 260 263 267 272 270 258 265 273 274 281 268 262 256 276 263 266 279 274 283 262 275 276 279 300 323 328 316 313 311 308
319 319 319 318 305 295 286 283 282 280 282 280 278 280 272 273 275 276 273 271 272 272 268 275 280 277 278 272 269 264 261 269 272 271 266 262 262 282 271 288 268 278 281 288 285 310 293 300 318 314 324 329 305 306
323 326 228 291 312 296 278 277 279 279 280 275 273 276 270 269 270 269 261 257 264 269 263 261 272 270 275 276 269 268 265 263 262 264 263 263 274 273 280 293 277 282 282 282 269 290 285 290 309 326 317 319 319 310
299 253 209 199 186 304 275 271 269 274 274 271 271 272 267 267 268 265 264 267 286 286 272 258 273 277 283 274 271 270 262 261 259 260 260 270 282 274 271 310 305 303 299 295 287 286 327 293 300 317 301 313 322 317
194 166 161 181 195 232 251 261 262 266 263 263 267 266 262 261 257 249 253 262 267 274 270 256 269 272 282 277 265 267 262 260 260 260 260 264 278 278 271 276 314 328 327 323 318 317 302 324 324 330 327 319 311 307
157 151 133 95 200 229 247 256 253 250 252 255 257 259 256 252 247 245 246 234 242 253 261 253 260 270 270 267 258 258 265 264 261 260 266 269 276 277 273 285 296 306 311 315 325 328 323 327 326 326 324 323 320 317
166 155 71 359 320 247 240 252 245 245 250 256 257 252 249 242 242 247 266 269 250 249 255 251 260 267 260 263 268 260 253 260 267 260 262 272 277 284 282 284 290 305 307 307 318 322 323 319 322 324 324 323 321 319
112 143 161 176 126 271 263 269 250 245 243 243 251 238 237 241 241 255 254 245 236 243 249 243 254 261 260 259 261 264 258 254 260 261 264 266 299 331 336 334 319 313 318 321 315 314 317 317 316 316 315 316 315 315
27 135 160 139 129 202 263 257 249 241 233 227 225 238 227 234 236 237 236 235 232 247 243 243 250 262 271 263 262 274 270 269 260 257 257 267 280 307 317 324 330 326 322 322 320 317 315 313 311 312 312 312 312 312
302 334 100 106 112 125 237 229 221 216 230 234 234 232 226 232 238 238 232 233 230 241 236 234 246 263 254 255 257 263 263 270 284 273 276 274 289 304 310 311 313 312 310 310 314 313 313 312 312 310 308 309 309 308
302 313 67 103 102 144 198 201 201 218 237 232 230 232 233 236 234 228 235 235 236 228 226 242 244 245 249 246 262 262 270 271 282 281 289 295 293 302 305 307 309 313 315 316 316 317 316 315 312 311 309 305 305 305
222 260 67 95 134 190 187 189 198 214 224 223 230 237 230 230 229 236 249 253 250 242 239 234 239 250 256 253 267 278 279 278 281 284 296 301 303 303 305 306 309 311 312 314 316 317 319 321 321 320 315 309 308 309
191 190 172 177 178 190 186 180 190 207 207 224 229 235 230 245 247 249 251 262 253 265 259 236 248 242 242 249 258 274 281 283 295 299 299 308 308 309 310 310 315 317 321 324 330 330 334 334 332 337 345 345 340 329
143 173 185 173 185 185 180 189 199 211 207 208 223 235 245 247 231 247 295 261 276 264 263 250 247 243 252 252 254 263 270 286 290 295 309 314 313 319 323 325 327 333 338 332 334 338 341 348 347 356 4 22 42 57
159 161 157 169 181 179 185 206 205 211 215 206 209 251 236 245 249 256 273 269 264 250 251 247 254 265 249 264 267 268 279 285 286 292 309 318 317 316 318 323 331 323 317 324 317 320 327 346 356 354 354 8 18 4
139 143 152 162 172 187 195 204 208 208 207 211 235 250 198 215 247 253 288 274 267 250 249 255 253 257 266 273 281 276 282 289 297 308 306 320 324 324 330 315 304 279 277 269 264 254 311 331 359 3 14 13 9 11
131 138 153 176 193 195 201 200 197 195 206 221 226 181 214 215 226 258 268 281 262 247 244 250 258 270 269 276 277 285 284 292 289 301 306 311 310 317 304 296 274 272 271 256 239 48 30 33 21 17 20 23 11 9
124 135 154 173 184 177 185 190 189 194 206 207 226 226 217 213 216 242 252 252 250 246 240 248 255 278 285 292 292 289 290 288 282 282 283 303 307 300 288 258 257 276 304 347 348 358 343 5 15 25 24 18 13 9
140 150 163 175 174 173 179 190 203 217 230 227 224 211 211 211 206 205 218 227 234 246 243 254 265 280 288 279 264 257 262 274 270 249 240 262 263 265 263 276 288 289 310 335 348 355 354 355 6 356 353 352 13 17
146 157 158 161 155 164 167 182 187 210 198 206 218 231 222 217 220 226 227 213 222 232 246 250 252 252 252 240 251 264 270 263 249 240 223 225 243 258 262 252 263 286 340 354 358 346 347 344 344 344 350 352 5 8
139 143 143 139 136 137 142 166 150 154 151 160 169 169 181 192 212 229 198 207 211 218 218 213 216 234 225 229 236 241 219 217 226 218 209 212 221 232 225 220 220 316 317 8 359 357 353 349 356 346 352 357 357 354
150 131 131 132 132 130 140 137 140 146 147 148 148 151 161 170 192 173 168 176 186 201 199 201 203 181 197 199 195 210 214 199 197 205 212 221 272 291 322 329 333 323 320 341 355 354 353 353 355 355 350 345 342 340
119 120 123 123 133 130 129 128 128 127 130 135 140 142 144 146 140 139 147 154 155 135 122 154 141 158 169 193 188 177 188 185 185 255 344 311 297 296 308 320 334 349 341 338 340 339 335 334 334 331 330 334 337 337
108 112 114 119 116 122 124 123 123 127 123 124 132 137 137 136 137 142 138 143 149 151 152 155 156 167 160 164 216 254 278 2 358 316 304 339 334 328 334 339 338 332 334 334 333 331 329 329 330 328 329 328 327 330
104 108 111 129 124 122 123 133 126 130 125 128 130 126 127 151 146 136 295 166 140 136 157 159 160 228 306 36 81 215 337 346 2 344 340 341 342 349 347 341 339 339 337 333 330 329 330 330 330 329 328 328 326 324
104 115 26 98 101 18 25 26 16 351 134 135 127 154 161 145 149 147 138 136 157 171 352 66 88 120 358 353 350 342 333 331 342 342 342 342 341 345 341 342 341 337 337 335 333 335 337 336 334 332 330 329 328 328
87 32 17 8 19 58 40 45 51 62 61 55 55 56 139 139 119 126 142 170 319 339 337 343 349 351 348 346 347 340 339 342 334 330 333 341 344 344 346 346 343 341 340 339 338 338 334 337 337 336 336 339 342 340
89 109 108 112 312 48 51 49 62 75 75 84 95 102 89 85 82 73 348 352 354 18 2 0 360 357 351 349 342 342 345 341 337 341 346 344 344 345 345 343 341 340 341 342 341 339 339 339 340 339 337 336 337 336
74 102 137 133 126 151 164 88 74 103 108 105 79 76 83 80 51 28 27 33 26 29 29 20 11 3 359 351 341 336 339 348 348 350 350 348 346 345 345 346 346 346 347 344 343 343 341 341 341 339 337 335 337 338
117 89 107 133 154 170 174 153 74 117 89 92 82 74 84 58 59 40 19 15 13 12 14 10 5 2 2 358 353 353 350 350 350 353 351 351 349 350 349 348 348 346 345 344 342 341 341 340 340 339 339 337 336 336
120 99 108 89 107 137 111 84 303 168 93 47 7 65 63 54 33 36 28 15 11 16 13 10 6 5 1 357 354 354 354 355 355 354 353 354 356 351 350 348 346 345 343 341 341 342 339 338 338 338 338 338 338 338